#timestamp,LO_Frequency,Hit,StdDev 
1571220015.4,286046994.9,N
1571220035.2,286047000.1,N
1571220055.1,286046997.3,N
1571220056.0,286046997.3,N
1571220075.8,286046997.1,N
1571220095.6,286046997.4,N
1571220115.5,286046997.0,N
1571220135.3,286047001.6,N
1571220155.2,286047002.1,N
1571220175.9,286047000.7,N
1571220195.7,286046998.5,N
1571220215.6,286047002.5,N
1571220235.4,286047002.2,N
1571220255.2,286047002.3,N
1571220275.1,286046998.9,N
1571220276.0,286046998.9,N
1571220295.8,286047002.8,N
1571220315.7,286047004.3,N
1571220335.5,286047004.4,N
1571220355.3,286046999.5,N
1571220375.2,286046996.7,N
1571220395.0,286046995.3,N
1571220395.9,286046995.3,N
1571220415.7,286046996.6,N
1571220435.6,286046998.8,N
1571220455.4,286047001.2,N
1571220475.3,286046998.3,N
1571220495.1,286046998.7,N
1571220496.0,286046998.7,N
1571220515.8,286046997.4,N
1571220535.7,286046995.3,N
1571220555.5,286046997.1,N
1571220575.4,286046993.9,N
1571220595.2,286046995.9,N
1571220615.0,286046994.0,N
1571220615.9,286046994.0,N
1571220635.8,286046998.8,N
1571220655.6,286046999.5,N
1571220675.4,286046997.4,N
1571220695.3,286046999.4,N
1571220715.1,286046998.1,N
1571220735.9,286047000.2,N
1571220755.7,286046995.3,N
1571220775.5,286046996.6,N
1571220795.4,286046996.9,N
1571220815.2,286046995.7,N
1571220835.0,286046997.3,N
1571220835.9,286046997.3,N
1571220855.8,286046996.4,N
1571220875.6,286046996.2,N
1571220895.5,286046995.2,N
1571220915.3,286046995.0,N
1571220935.1,286046993.9,Y
1571220955.9,286046998.1,P
1571220975.7,286046999.6,N
1571220995.5,286046996.5,P
1571221015.4,286046996.6,N
1571221035.2,286046997.6,N
1571221055.1,286047000.8,N
1571221056.0,286047000.8,N
1571221075.8,286046998.6,N
1571221095.6,286046999.2,N
1571221115.5,286046995.3,Y
1571221135.3,286046998.2,P
1571221155.1,286046997.4,P
1571221175.9,286047001.2,N
1571221195.7,286047001.4,N
1571221215.6,286047004.1,N
1571221235.4,286047003.4,N
1571221255.2,286047003.7,N
1571221275.1,286047004.0,N
1571221276.0,286047004.0,N
1571221295.8,286047003.6,N
1571221315.6,286047002.3,N
1571221335.5,286047001.4,N
1571221355.3,286047001.2,N
1571221375.2,286047001.7,N
1571221395.9,286047001.8,N
1571221415.7,286047001.1,N
1571221435.6,286047000.0,N
1571221455.4,286047002.1,N
1571221475.2,286047000.3,N
1571221495.1,286046998.3,N
1571221496.0,286046998.3,N
1571221515.8,286047002.5,N
1571221535.7,286046999.8,N
1571221555.5,286046998.2,N
1571221575.3,286046998.3,N
1571221595.2,286046997.7,N
1571221615.0,286046996.8,N
1571221615.9,286046996.8,N
1571221635.8,286046997.1,N
1571221655.6,286046996.6,N
1571221675.4,286047001.1,N
1571221695.3,286046996.6,N
1571221715.1,286046996.9,N
1571221735.8,286046997.7,N
1571221755.7,286046998.9,N
1571221775.5,286047000.5,N
1571221795.4,286046998.2,N
1571221815.2,286046998.0,N
1571221835.0,286047002.7,N
1571221835.9,286047002.7,N
1571221855.8,286047004.0,N
1571221875.6,286047002.2,N
1571221895.4,286047001.7,N
1571221915.3,286047004.0,N
1571221935.1,286047000.5,N
1571221955.9,286046999.8,N
1571221975.7,286046998.8,N
1571221995.5,286046999.6,N
1571222015.4,286046998.3,N
1571222035.2,286046997.4,N
1571222055.0,286046998.0,N
1571222056.0,286046998.0,N
1571222075.8,286046996.4,N
1571222095.6,286046998.4,N
1571222115.5,286046999.8,N
1571222135.3,286046998.4,N
1571222155.1,286046996.6,N
1571222175.9,286046998.1,N
1571222195.7,286047001.1,N
1571222215.6,286047000.7,N
1571222235.4,286047001.9,N
1571222255.2,286047004.1,N
1571222275.1,286047003.6,N
1571222276.0,286047003.6,N
1571222295.8,286047004.3,N
1571222315.6,286046999.9,N
1571222335.5,286047001.0,N
1571222355.3,286046999.6,N
1571222375.2,286046996.6,N
1571222395.0,286046996.3,N
1571222395.9,286046996.3,N
1571222415.7,286046997.9,N
1571222435.6,286046997.7,N
1571222455.4,286046996.6,N
1571222475.3,286047000.5,N
1571222495.1,286047000.6,N
1571222496.0,286047000.6,N
1571222515.8,286046999.9,N
1571222535.7,286046999.9,N
1571222555.5,286046999.8,N
1571222575.4,286047000.5,N
1571222595.2,286046998.4,N
1571222615.0,286047002.0,N
1571222615.9,286047002.0,N
1571222635.8,286046998.5,N
1571222655.6,286047000.7,N
1571222675.4,286047000.9,N
1571222695.3,286046999.2,N
1571222715.1,286046997.6,N
1571222735.9,286046996.7,N
1571222755.7,286046996.6,N
1571222775.5,286046997.4,N
1571222795.4,286046996.2,N
1571222815.2,286046995.7,N
1571222835.0,286046993.9,N
1571222835.9,286046993.9,N
1571222855.8,286046999.2,N
1571222875.6,286046999.0,N
1571222895.5,286046998.9,N
1571222915.3,286046997.0,N
1571222935.1,286046999.5,N
1571222955.9,286046994.9,N
1571222975.7,286046997.3,N
1571222995.5,286046996.7,N
1571223015.4,286046997.1,N
1571223035.2,286046999.1,N
1571223055.1,286046999.5,N
1571223056.0,286046999.5,N
1571223075.8,286047002.5,N
1571223095.6,286047001.8,N
1571223115.5,286047001.6,N
1571223135.3,286046998.2,N
1571223155.1,286047000.8,N
1571223175.9,286046998.3,N
1571223195.7,286047000.1,N
1571223215.6,286047001.8,N
1571223235.4,286047007.2,Y
1571223255.2,286047006.2,P
1571223275.1,286047005.8,N
1571223276.0,286047005.8,N
1571223295.8,286047004.7,N
1571223315.7,286047006.2,N
1571223335.5,286047005.9,N
1571223355.3,286047005.6,N
1571223375.2,286047004.5,N
1571223395.9,286047004.9,N
1571223415.7,286047005.7,N
1571223435.6,286047005.5,N
1571223455.4,286047002.9,N
1571223475.2,286047002.7,N
1571223495.1,286047001.7,N
1571223496.0,286047001.7,N
1571223515.8,286047005.2,N
1571223535.7,286047009.6,Y
1571223555.5,286047005.9,P
1571223575.3,286047004.3,P
1571223595.2,286047003.6,P
